Weather History for Kansas City, MO

Change the Weather History Date:

Saturday, December 1, 2012

  Actual Average Record
Temperature  
Mean Temperature 59 °F -  
Max Temperature 68 °F 47 °F 68 °F (2012)
Min Temperature 50 °F 31 °F 15 °F (2006)
Degree Days  
Heating Degree Days 6    
Growing Degree Days 9 (Base 50)    
Moisture  
Dew Point 53 °F    
Average Humidity 83    
Maximum Humidity 94    
Minimum Humidity 68    
Precipitation  
Precipitation 0.00 in - - ()
Sea Level Pressure  
Sea Level Pressure 29.88 in    
Wind  
Wind Speed 4 mph (South)    
Max Wind Speed 10 mph    
Max Gust Speed -    
Visibility 6 miles    
Events      
Averages and records for this station are not official NWS values.
T = Trace of Precipitation, MM = Missing Value Source: NWS Daily Summary

Daily Weather History Graph

Daily Weather History Graph

Search for Another Location

Airport:

Trip Planner

Search our weather history database for the weather conditions in past years. The results will help you decide how hot, cold, wet, or windy it might be!

Date:

Astronomy

Dec. 01, 2012 Rise Set
Actual Time 7:19 AM CST 4:56 PM CST
Civil Twilight 6:49 AM CST 5:25 PM CST
Nautical Twilight 6:16 AM CST 5:58 PM CST
Astronomical Twilight 5:44 AM CST 6:31 PM CST
Moon 7:46 PM CST (12/1) 9:32 AM CST (12/1)
Length of Visible Light 10h 36m
Length of Day
9h 36m
Waning Gibbous, 91% of the Moon is Illuminated
Dec 1
Waning Gibbous
Dec 6
Last Quarter
Dec 13
New
Dec 19
First Quarter
Dec 28
Full

Hourly Weather History & Observations

Time (CST) Temp. Dew Point Humidity Pressure Visibility Wind Dir Wind Speed Gust Speed Precip Events Conditions
12:54 AM 50.0 °F 42.1 °F 74% 29.99 in 8.0 mi Calm Calm - N/A   Overcast
1:17 AM 53.6 °F 46.4 °F 77% 29.98 in 8.0 mi South 5.8 mph - N/A   Overcast
1:54 AM 55.4 °F 48.2 °F 77% 29.98 in 7.0 mi Calm Calm - N/A   Overcast
2:54 AM 55.4 °F 48.2 °F 77% 29.98 in 7.0 mi Calm Calm - N/A   Overcast
3:54 AM 57.2 °F 51.8 °F 82% 29.96 in 6.0 mi South 6.9 mph - N/A   Haze
4:54 AM 57.2 °F 51.8 °F 82% 29.94 in 6.0 mi South 9.2 mph - N/A   Haze
5:11 AM 57.2 °F 51.8 °F 82% 29.94 in 6.0 mi South 10.4 mph - N/A   Haze
6:54 AM 57.0 °F 54.0 °F 89% 29.90 in 4.0 mi SE 3.5 mph - N/A   Overcast
7:54 AM 57.2 °F 53.6 °F 88% 29.91 in 4.0 mi South 4.6 mph - N/A   Overcast
8:21 AM 57.2 °F 55.4 °F 94% 29.90 in 2.5 mi Calm Calm - N/A   Overcast
8:54 AM 59.0 °F 55.0 °F 87% 29.90 in 2.5 mi SSE 4.6 mph - N/A   Overcast
9:01 AM 60.8 °F 55.4 °F 82% 29.90 in 4.0 mi South 5.8 mph - N/A   Haze
9:54 AM 62.1 °F 55.9 °F 80% 29.88 in 5.0 mi South 8.1 mph - N/A   Haze
10:54 AM 64.0 °F 55.9 °F 75% 29.87 in 7.0 mi South 8.1 mph - N/A   Overcast
11:54 AM 64.4 °F 55.4 °F 73% 29.84 in 8.0 mi South 8.1 mph - N/A   Overcast
12:54 PM 66.0 °F 57.0 °F 73% 29.82 in 8.0 mi South 5.8 mph - N/A   Overcast
1:54 PM 66.0 °F 57.0 °F 73% 29.80 in 8.0 mi SSE 4.6 mph - N/A   Overcast
2:54 PM 68.0 °F 57.0 °F 68% 29.78 in 10.0 mi South 8.1 mph - N/A   Mostly Cloudy
3:54 PM 66.0 °F 57.0 °F 73% 29.78 in 9.0 mi South 3.5 mph - N/A   Mostly Cloudy
4:54 PM 64.9 °F 57.0 °F 75% 29.78 in 8.0 mi South 3.5 mph - N/A   Scattered Clouds
5:54 PM 59.0 °F 55.0 °F 87% 29.81 in 7.0 mi Calm Calm - N/A   Partly Cloudy
6:54 PM 57.0 °F 55.0 °F 93% 29.82 in 6.0 mi Calm Calm - N/A   Mostly Cloudy
7:54 PM 55.9 °F 53.1 °F 90% 29.83 in 5.0 mi Calm Calm - N/A   Clear
8:54 PM 55.9 °F 54.0 °F 93% 29.85 in 3.0 mi SSW 3.5 mph - N/A   Clear
9:54 PM 55.0 °F 53.1 °F 93% 29.86 in 4.0 mi SSW 3.5 mph - N/A   Clear
10:54 PM 51.1 °F 48.9 °F 92% 29.88 in 4.0 mi Calm Calm - N/A   Partly Cloudy
11:01 PM 51.8 °F 50.0 °F 94% 29.88 in 1.0 mi Calm Calm - N/A   Mist
11:03 PM 51.8 °F 50.0 °F 94% 29.88 in 4.0 mi Calm Calm - N/A   Partly Cloudy
11:54 PM 50.0 °F 48.0 °F 93% 29.89 in 4.0 mi SSW 4.6 mph - N/A   Clear